FYT8200 LOWW-LIRF

Flight info

Callsign FYT8200
Flight time 1h 10m
Altitude 31000
Route RUPET DCT GRZ DCT BAXON DCT UNUMU N737 IPGOR/N0396F190 N737 ETPOK T369 RITEB
Aircraft A321/M-SDE1FGHIJ1RWXY/S

Departure

Time 2026-05-04 09:14
Airport Vienna International Airport (LOWW)

Arrival

Time 2026-05-04 10:25
Airport Rome–Fiumicino Leonardo da Vinci International Airport (LIRF)
Time Latitude Longitude Altitude Speed Heading
2026-05-04 08:37 48.12089 16.55654 590 ft 0 kts 115°
2026-05-04 09:04 48.12092 16.55645 590 ft 2 kts 123°
2026-05-04 09:04 48.12096 16.55637 590 ft 2 kts 122°
2026-05-04 09:04 48.12103 16.55617 589 ft 2 kts 112°
2026-05-04 09:04 48.12109 16.55597 589 ft 1 kts 117°
2026-05-04 09:05 48.12113 16.55587 589 ft 1 kts 161°
2026-05-04 09:05 48.12118 16.55586 589 ft 0 kts 206°
2026-05-04 09:05 48.12124 16.55591 589 ft 0 kts 207°
2026-05-04 09:05 48.12125 16.55592 589 ft 0 kts 207°
2026-05-04 09:07 48.12103 16.55575 589 ft 5 kts 206°
2026-05-04 09:08 48.12053 16.55539 589 ft 10 kts 206°
2026-05-04 09:08 48.11982 16.55488 589 ft 11 kts 206°
2026-05-04 09:08 48.11904 16.55441 590 ft 12 kts 191°
2026-05-04 09:08 48.11822 16.55440 590 ft 12 kts 150°
2026-05-04 09:09 48.11775 16.55541 591 ft 12 kts 117°
2026-05-04 09:09 48.11732 16.55670 591 ft 15 kts 117°
2026-05-04 09:09 48.11677 16.55831 593 ft 18 kts 118°
2026-05-04 09:09 48.11619 16.56016 594 ft 19 kts 112°
2026-05-04 09:10 48.11566 16.56195 596 ft 18 kts 115°
2026-05-04 09:10 48.11514 16.56358 598 ft 16 kts 118°
2026-05-04 09:10 48.11461 16.56503 599 ft 15 kts 117°
2026-05-04 09:10 48.11416 16.56642 601 ft 15 kts 116°
2026-05-04 09:11 48.11362 16.56804 603 ft 20 kts 116°
2026-05-04 09:11 48.11297 16.57004 605 ft 21 kts 116°
2026-05-04 09:11 48.11234 16.57194 606 ft 19 kts 115°
2026-05-04 09:11 48.11177 16.57376 607 ft 18 kts 115°
2026-05-04 09:12 48.11136 16.57551 607 ft 17 kts 75°
2026-05-04 09:12 48.11228 16.57658 606 ft 17 kts 26°
2026-05-04 09:14 48.11646 16.57964 603 ft 60 kts 163°
2026-05-04 09:14 48.11014 16.58232 608 ft 125 kts 165°
2026-05-04 09:14 48.09992 16.58673 614 ft 177 kts 166°
2026-05-04 09:14 48.08790 16.59076 1215 ft 177 kts 166°
2026-05-04 09:15 48.07605 16.59526 1886 ft 178 kts 163°
2026-05-04 09:15 48.06428 16.59945 2258 ft 181 kts 175°
2026-05-04 09:15 48.05197 16.59377 2545 ft 203 kts 215°
2026-05-04 09:15 48.04173 16.57773 2889 ft 221 kts 226°
2026-05-04 09:17 47.94764 16.43063 7813 ft 259 kts 223°
2026-05-04 09:18 47.93428 16.41227 8308 ft 268 kts 223°
2026-05-04 09:18 47.92028 16.39292 8815 ft 277 kts 223°
2026-05-04 09:18 47.90634 16.37321 9469 ft 279 kts 223°
2026-05-04 09:18 47.89245 16.35327 10124 ft 281 kts 223°
2026-05-04 09:19 47.87779 16.33204 10604 ft 292 kts 223°
2026-05-04 09:19 47.86169 16.31239 11074 ft 299 kts 210°
2026-05-04 09:19 47.84263 16.30053 11789 ft 297 kts 195°
2026-05-04 09:19 47.82240 16.29165 12190 ft 308 kts 204°
2026-05-04 09:20 47.80464 16.27261 12452 ft 324 kts 227°
2026-05-04 09:20 47.79232 16.24382 12730 ft 339 kts 241°
2026-05-04 09:20 47.78085 16.21306 13212 ft 344 kts 237°
2026-05-04 09:20 47.76755 16.18413 13778 ft 346 kts 232°
2026-05-04 09:21 47.75235 16.15598 14373 ft 347 kts 228°
2026-05-04 09:21 47.73638 16.12929 14930 ft 349 kts 226°
2026-05-04 09:21 47.71983 16.10325 15489 ft 351 kts 225°
2026-05-04 09:21 47.70281 16.07740 16037 ft 353 kts 224°
2026-05-04 09:22 47.68527 16.05129 16586 ft 355 kts 224°
2026-05-04 09:22 47.66777 16.02552 17108 ft 357 kts 224°
2026-05-04 09:22 47.65024 15.99988 17625 ft 359 kts 224°
2026-05-04 09:22 47.63232 15.97376 18108 ft 362 kts 224°
2026-05-04 09:23 47.61426 15.94750 18558 ft 365 kts 224°
2026-05-04 09:23 47.59629 15.92142 18957 ft 369 kts 224°
2026-05-04 09:23 47.57783 15.89466 19377 ft 372 kts 224°
2026-05-04 09:23 47.55933 15.86789 19803 ft 375 kts 224°
2026-05-04 09:25 47.41188 15.70192 22528 ft 398 kts 202°
2026-05-04 09:25 47.38585 15.68748 22883 ft 401 kts 201°
2026-05-04 09:26 47.35977 15.67311 23241 ft 404 kts 201°
2026-05-04 09:26 47.33353 15.65863 23582 ft 407 kts 202°
2026-05-04 09:26 47.30703 15.64396 23920 ft 410 kts 202°
2026-05-04 09:26 47.28004 15.62898 24266 ft 413 kts 202°
2026-05-04 09:27 47.25323 15.61410 24616 ft 415 kts 202°
2026-05-04 09:27 47.22641 15.59919 24964 ft 417 kts 202°
2026-05-04 09:27 47.19934 15.58417 25308 ft 419 kts 202°
2026-05-04 09:27 47.17169 15.56883 25639 ft 422 kts 202°
2026-05-04 09:28 47.14447 15.55375 25968 ft 424 kts 202°
2026-05-04 09:28 47.11668 15.53837 26291 ft 426 kts 202°
2026-05-04 09:28 47.08906 15.52309 26599 ft 428 kts 202°
2026-05-04 09:28 47.06127 15.50773 26891 ft 431 kts 202°
2026-05-04 09:29 47.03307 15.49218 27175 ft 433 kts 202°
2026-05-04 09:29 47.00486 15.47664 27464 ft 436 kts 202°
2026-05-04 09:29 46.97671 15.46067 27759 ft 437 kts 204°
2026-05-04 09:29 46.94892 15.44252 28055 ft 438 kts 207°
2026-05-04 09:30 46.92177 15.42224 28433 ft 437 kts 208°
2026-05-04 09:30 46.89353 15.40492 28897 ft 435 kts 203°
2026-05-04 09:30 46.86662 15.38616 29250 ft 433 kts 212°
2026-05-04 09:30 46.84091 15.36306 29562 ft 433 kts 214°
2026-05-04 09:31 46.81522 15.33941 29809 ft 436 kts 213°
2026-05-04 09:31 46.78931 15.31624 30049 ft 438 kts 213°
2026-05-04 09:31 46.76339 15.29378 30310 ft 440 kts 212°
2026-05-04 09:31 46.73667 15.27116 30608 ft 440 kts 212°
2026-05-04 09:32 46.71025 15.24915 30892 ft 441 kts 211°
2026-05-04 09:32 46.68362 15.22717 31086 ft 442 kts 211°
2026-05-04 09:34 46.46933 15.05297 31106 ft 442 kts 211°
2026-05-04 09:34 46.41566 15.00965 31103 ft 443 kts 211°
2026-05-04 09:35 46.36197 14.96640 31099 ft 443 kts 211°
2026-05-04 09:35 46.30830 14.92333 31101 ft 442 kts 211°
2026-05-04 09:37 46.09356 14.75185 31110 ft 442 kts 211°
2026-05-04 09:38 46.03960 14.70898 31108 ft 442 kts 212°
2026-05-04 09:38 45.98602 14.66652 31107 ft 442 kts 211°
2026-05-04 09:39 45.93231 14.62406 31106 ft 442 kts 211°
2026-05-04 09:39 45.87878 14.58186 31108 ft 442 kts 211°
2026-05-04 09:40 45.82479 14.53938 31107 ft 442 kts 212°
2026-05-04 09:40 45.77129 14.49735 31111 ft 441 kts 212°
2026-05-04 09:42 45.55664 14.32972 31122 ft 440 kts 211°
2026-05-04 09:43 45.50265 14.28777 31123 ft 441 kts 211°
2026-05-04 09:43 45.44887 14.24610 31120 ft 440 kts 211°
2026-05-04 09:44 45.39533 14.20469 31118 ft 440 kts 211°
2026-05-04 09:46 45.18112 14.03993 31115 ft 438 kts 211°
2026-05-04 09:46 45.12729 13.99876 31116 ft 438 kts 211°
2026-05-04 09:47 45.07402 13.95809 31119 ft 439 kts 211°
2026-05-04 09:49 44.85966 13.79532 31116 ft 437 kts 211°
2026-05-04 09:51 44.67309 13.65477 31112 ft 435 kts 211°
2026-05-04 09:51 44.61963 13.61470 31110 ft 435 kts 211°
2026-05-04 09:52 44.56664 13.57505 31109 ft 434 kts 211°
2026-05-04 09:52 44.51344 13.53532 31109 ft 434 kts 211°
2026-05-04 09:53 44.46003 13.49552 31109 ft 434 kts 211°
2026-05-04 09:53 44.40691 13.45596 31109 ft 433 kts 211°
2026-05-04 09:54 44.35432 13.41600 31109 ft 433 kts 211°
2026-05-04 09:54 44.30159 13.37583 31108 ft 432 kts 211°
2026-05-04 09:55 44.24888 13.33582 31108 ft 432 kts 211°
2026-05-04 09:55 44.19613 13.29589 31108 ft 432 kts 211°
2026-05-04 09:56 44.14312 13.25585 31109 ft 432 kts 211°
2026-05-04 09:56 44.09072 13.21635 31108 ft 432 kts 211°
2026-05-04 09:57 44.03799 13.17668 31107 ft 431 kts 211°
2026-05-04 09:57 43.98515 13.13701 31108 ft 431 kts 211°
2026-05-04 09:58 43.93276 13.09777 31103 ft 430 kts 211°
2026-05-04 09:58 43.88011 13.05841 31107 ft 430 kts 211°
2026-05-04 10:00 43.66959 12.90178 31117 ft 431 kts 211°
2026-05-04 10:02 43.48476 12.76533 29533 ft 422 kts 210°
2026-05-04 10:04 43.29727 12.64726 25932 ft 412 kts 206°
2026-05-04 10:04 43.27134 12.63120 25453 ft 407 kts 206°
2026-05-04 10:04 43.24591 12.61544 24975 ft 402 kts 206°
2026-05-04 10:04 43.22081 12.59990 24505 ft 397 kts 206°
2026-05-04 10:05 43.19546 12.58419 24029 ft 393 kts 206°
2026-05-04 10:05 43.17077 12.56892 23567 ft 388 kts 206°
2026-05-04 10:05 43.14629 12.55377 23110 ft 384 kts 206°
2026-05-04 10:05 43.12209 12.53879 22664 ft 381 kts 206°
2026-05-04 10:06 43.09821 12.52402 22205 ft 378 kts 206°
2026-05-04 10:06 43.07398 12.50905 21727 ft 376 kts 206°
2026-05-04 10:06 43.05036 12.49449 21280 ft 373 kts 205°
2026-05-04 10:08 42.91100 12.40878 18504 ft 359 kts 205°
2026-05-04 10:08 42.88842 12.39495 18060 ft 357 kts 205°
2026-05-04 10:08 42.86589 12.38114 17617 ft 355 kts 204°
2026-05-04 10:08 42.84337 12.36735 17161 ft 353 kts 204°
2026-05-04 10:09 42.82070 12.35348 16704 ft 351 kts 204°
2026-05-04 10:09 42.79805 12.33962 16241 ft 350 kts 203°
2026-05-04 10:09 42.77609 12.32621 15793 ft 348 kts 203°
2026-05-04 10:09 42.75393 12.31271 15332 ft 347 kts 203°
2026-05-04 10:10 42.73189 12.29927 14875 ft 346 kts 203°
2026-05-04 10:10 42.70982 12.28645 14383 ft 345 kts 198°
2026-05-04 10:10 42.68638 12.28004 13818 ft 345 kts 186°
2026-05-04 10:10 42.66237 12.27673 13204 ft 348 kts 184°
2026-05-04 10:11 42.63838 12.27366 12564 ft 349 kts 185°
2026-05-04 10:11 42.61424 12.27027 12018 ft 347 kts 185°
2026-05-04 10:11 42.59060 12.26668 11539 ft 344 kts 185°
2026-05-04 10:11 42.56678 12.26287 11041 ft 341 kts 186°
2026-05-04 10:12 42.54367 12.25905 10634 ft 335 kts 186°
2026-05-04 10:12 42.52133 12.25530 10427 ft 311 kts 186°
2026-05-04 10:12 42.50073 12.25179 10315 ft 284 kts 186°
2026-05-04 10:12 42.48153 12.24852 10236 ft 272 kts 186°
2026-05-04 10:13 42.46305 12.24537 10068 ft 269 kts 185°
2026-05-04 10:13 42.44450 12.24222 9673 ft 269 kts 185°
2026-05-04 10:13 42.42600 12.23908 9308 ft 268 kts 186°
2026-05-04 10:13 42.40769 12.23597 8965 ft 267 kts 186°
2026-05-04 10:14 42.38929 12.23283 8656 ft 260 kts 186°
2026-05-04 10:14 42.37170 12.22982 8355 ft 253 kts 186°
2026-05-04 10:16 42.26373 12.21139 6332 ft 210 kts 186°
2026-05-04 10:16 42.24921 12.20893 6043 ft 209 kts 186°
2026-05-04 10:16 42.23482 12.20646 5775 ft 208 kts 186°
2026-05-04 10:16 42.22058 12.20403 5516 ft 207 kts 186°
2026-05-04 10:17 42.20638 12.20161 5246 ft 206 kts 186°
2026-05-04 10:17 42.19220 12.19920 4979 ft 205 kts 186°
2026-05-04 10:19 42.09494 12.17565 3569 ft 202 kts 191°
2026-05-04 10:19 42.08125 12.17245 3257 ft 202 kts 185°
2026-05-04 10:19 42.06724 12.17207 2965 ft 202 kts 175°
2026-05-04 10:19 42.05347 12.17504 2917 ft 200 kts 166°
2026-05-04 10:20 42.04000 12.18004 2943 ft 201 kts 162°
2026-05-04 10:20 42.02660 12.18570 2767 ft 200 kts 162°
2026-05-04 10:20 42.01349 12.19132 2530 ft 195 kts 162°
2026-05-04 10:20 42.00112 12.19658 2511 ft 180 kts 162°
2026-05-04 10:21 41.98906 12.20166 2489 ft 179 kts 162°
2026-05-04 10:21 41.97729 12.20659 2477 ft 178 kts 162°
2026-05-04 10:21 41.96529 12.21160 2409 ft 179 kts 162°
2026-05-04 10:21 41.95342 12.21657 2193 ft 179 kts 163°
2026-05-04 10:22 41.92979 12.22643 1726 ft 177 kts 162°
2026-05-04 10:22 41.91804 12.23135 1498 ft 177 kts 163°
2026-05-04 10:22 41.90684 12.23602 1248 ft 158 kts 162°
2026-05-04 10:23 41.89690 12.24020 1025 ft 143 kts 162°
2026-05-04 10:23 41.88755 12.24413 861 ft 141 kts 163°
2026-05-04 10:25 41.82740 12.26926 11 ft 51 kts 163°
2026-05-04 10:25 41.82464 12.27045 11 ft 38 kts 160°
2026-05-04 10:25 41.82216 12.27132 11 ft 35 kts 174°
2026-05-04 10:25 41.81984 12.27101 11 ft 31 kts 186°
2026-05-04 10:26 41.81771 12.27060 12 ft 29 kts 187°
2026-05-04 10:26 41.81575 12.27089 12 ft 27 kts 161°
2026-05-04 10:26 41.81399 12.27167 13 ft 25 kts 162°
2026-05-04 10:26 41.81231 12.27237 13 ft 24 kts 162°
2026-05-04 10:27 41.81072 12.27301 13 ft 23 kts 165°
2026-05-04 10:27 41.80917 12.27347 13 ft 22 kts 181°
2026-05-04 10:27 41.80767 12.27319 13 ft 21 kts 189°
2026-05-04 10:27 41.80654 12.27212 14 ft 20 kts 243°
2026-05-04 10:28 41.80603 12.27037 14 ft 20 kts 250°
2026-05-04 10:28 41.80556 12.26864 14 ft 19 kts 249°
2026-05-04 10:28 41.80509 12.26698 15 ft 18 kts 249°
2026-05-04 10:28 41.80465 12.26536 15 ft 18 kts 249°
2026-05-04 10:29 41.80401 12.26394 16 ft 17 kts 212°
2026-05-04 10:29 41.80284 12.26401 16 ft 17 kts 163°
2026-05-04 10:29 41.80169 12.26377 16 ft 17 kts 205°
2026-05-04 10:29 41.80121 12.26296 16 ft 8 kts 275°
2026-05-04 10:30 41.80113 12.26248 16 ft 2 kts 229°
2026-05-04 10:30 41.80096 12.26233 16 ft 3 kts 212°
2026-05-04 10:30 41.80081 12.26222 16 ft 0 kts 206°
2026-05-04 10:30 41.80074 12.26218 16 ft 1 kts 206°
2026-05-04 10:31 41.80069 12.26214 16 ft 0 kts 206°